KB3CNS Weather Reports


Display with metric or nautical units.
time (UTC)temp
F
wind
direction
speed
MPH
gust
MPH
rain 1hr
in
rain 24hr
in
rain mn
in
humidity
%
barometer
mb
20260504151006 59 179 4.0 16.0 0.00 0.00 0.00 50 1010.9
20260504150504 58 213 5.0 16.0 0.00 0.00 0.00 51 1010.9
20260504141003 57 196 4.0 16.0 0.00 0.00 0.00 54 1011.3
20260504140503 56 224 7.0 16.0 0.00 0.00 0.00 52 1011.3
20260504130503 53 221 5.0 11.0 0.00 0.00 0.00 54 1011.2
20260504110507 47 176 4.0 9.0 0.00 0.00 0.00 58 1011.3
20260504100511 46 175 5.0 9.0 0.00 0.00 0.00 60 1011.4
20260504082003 45 155 4.0 6.0 0.00 0.00 0.00 58 1012.2
20260504081506 45 167 4.0 7.0 0.00 0.00 0.00 58 1012.2
20260504081004 46 165 4.0 7.0 0.00 0.00 0.00 57 1012.3
20260504080504 46 202 4.0 6.0 0.00 0.00 0.00 57 1012.3
20260504044509 48 201 4.0 9.0 0.00 0.00 0.00 51 1013.2
20260504044004 48 215 4.0 9.0 0.00 0.00 0.00 51 1013.1
20260504043506 48 210 3.0 10.0 0.00 0.00 0.00 51 1013.1
20260504043012 48 233 5.0 11.0 0.00 0.00 0.00 51 1013.2
20260504042503 48 240 6.0 11.0 0.00 0.00 0.00 51 1013.1
20260504042007 48 264 6.0 11.0 0.00 0.00 0.00 51 1013.2
20260504041514 48 256 5.0 11.0 0.00 0.00 0.00 51 1013.3
20260504041005 48 211 4.0 8.0 0.00 0.00 0.00 52 1013.3
20260504040506 48 172 5.0 9.0 0.00 0.00 0.00 52 1013.3
20260504040021 48 240 4.0 9.0 0.00 0.00 0.00 52 1013.4
20260504035506 48 231 5.0 9.0 0.00 0.00 0.00 52 1013.3
20260504035003 47 200 4.0 7.0 0.00 0.00 0.00 52 1013.4
20260504034503 48 161 3.0 8.0 0.00 0.00 0.00 51 1013.5
20260504034003 48 199 3.0 10.0 0.00 0.00 0.00 51 1013.5
20260504033506 48 210 4.0 11.0 0.00 0.00 0.00 51 1013.5
20260504033007 48 219 5.0 11.0 0.00 0.00 0.00 51 1013.4
20260504032504 48 219 6.0 11.0 0.00 0.00 0.00 50 1013.4
20260504032004 49 221 6.0 10.0 0.00 0.00 0.00 50 1013.4
20260504031514 49 221 5.0 12.0 0.00 0.00 0.00 50 1013.3
20260504031008 49 215 5.0 12.0 0.00 0.00 0.00 49 1013.3
20260504030508 49 238 6.0 10.0 0.00 0.00 0.00 50 1013.3
20260504030014 49 264 6.0 10.0 0.00 0.00 0.00 49 1013.4
20260504025510 49 227 6.0 10.0 0.00 0.00 0.00 49 1013.4
20260504025006 49 200 5.0 14.0 0.00 0.00 0.00 49 1013.4
20260504024519 49 188 4.0 14.0 0.00 0.00 0.00 49 1013.5
20260504024008 49 240 6.0 13.0 0.00 0.00 0.00 49 1013.5
20260504023503 49 201 6.0 13.0 0.00 0.00 0.00 49 1013.5
20260504023004 49 243 6.0 12.0 0.00 0.00 0.00 49 1013.6
20260504022503 49 221 6.0 13.0 0.00 0.00 0.00 49 1013.5
20260504022004 49 258 5.0 13.0 0.00 0.00 0.00 49 1013.6
20260504021505 49 274 5.0 11.0 0.00 0.00 0.00 49 1013.6
20260504021003 49 238 5.0 13.0 0.00 0.00 0.00 48 1013.6
20260504020503 49 255 5.0 13.0 0.00 0.00 0.00 48 1013.6
20260504020010 49 247 4.0 15.0 0.00 0.00 0.00 48 1013.5
20260504015507 50 240 5.0 15.0 0.00 0.00 0.00 48 1013.6
20260504015004 50 255 5.0 10.0 0.00 0.00 0.00 47 1013.6
20260504014518 50 238 5.0 11.0 0.00 0.00 0.00 47 1013.6
20260504014007 50 245 6.0 11.0 0.00 0.00 0.00 47 1013.5
20260504013507 50 251 6.0 11.0 0.00 0.00 0.00 47 1013.4
20260504013022 50 263 6.0 11.0 0.00 0.00 0.00 47 1013.3
20260504012507 50 227 5.0 13.0 0.00 0.00 0.00 47 1013.3
20260504012008 50 253 7.0 13.0 0.00 0.00 0.00 46 1013.3
20260504011504 50 297 4.0 13.0 0.00 0.00 0.00 46 1013.2
20260504011003 50 220 6.0 13.0 0.00 0.00 0.00 46 1013.2
20260504010502 51 214 8.0 13.0 0.00 0.00 0.00 46 1013.3
20260504010007 51 225 7.0 13.0 0.00 0.00 0.00 46 1013.3
20260504005504 51 250 4.0 12.0 0.00 0.00 0.00 46 1013.3
20260504005004 51 254 6.0 14.0 0.00 0.00 0.00 46 1013.2
20260504004517 51 241 7.0 14.0 0.00 0.00 0.00 46 1013.2
20260504004004 51 246 6.0 12.0 0.00 0.00 0.00 46 1013.2
20260504003507 51 235 5.0 13.0 0.00 0.00 0.00 45 1013.2
20260504003018 51 197 7.0 13.0 0.00 0.00 0.00 45 1013.2
20260504002506 51 243 6.0 13.0 0.00 0.00 0.00 45 1013.2
20260504002009 52 245 8.0 13.0 0.00 0.00 0.00 44 1013.3
20260504001520 52 253 6.0 13.0 0.00 0.00 0.00 44 1013.3
20260504001007 52 234 8.0 15.0 0.00 0.00 0.00 44 1013.2
20260504000508 52 278 5.0 15.0 0.00 0.00 0.00 44 1013.1
20260504000008 53 213 6.0 12.0 0.00 0.00 0.00 43 1013.2
20260503235503 53 274 6.0 15.0 0.00 0.00 0.00 43 1013.3
20260503235002 53 282 7.0 18.0 0.00 0.00 0.00 42 1013.3
20260503234503 53 244 7.0 18.0 0.00 0.00 0.00 42 1013.2
20260503234001 53 238 10.0 16.0 0.00 0.00 0.00 41 1013.2
20260503233502 53 260 5.0 14.0 0.00 0.00 0.00 42 1013.2
20260503233003 54 247 7.0 14.0 0.00 0.00 0.00 41 1013.2
20260503232503 54 258 8.0 14.0 0.00 0.00 0.00 41 1013.3
20260503232002 54 268 5.0 19.0 0.00 0.00 0.00 41 1013.2
20260503231503 54 274 8.0 19.0 0.00 0.00 0.00 41 1013.3
20260503231004 54 239 7.0 19.0 0.00 0.00 0.00 40 1013.3
20260503230503 54 263 10.0 23.0 0.00 0.00 0.00 40 1013.2
20260503230004 54 264 12.0 23.0 0.00 0.00 0.00 39 1013.4
20260503225504 54 256 10.0 19.0 0.00 0.00 0.00 39 1013.3
20260503225004 54 251 5.0 17.0 0.00 0.00 0.00 40 1013.2
20260503224504 54 240 10.0 20.0 0.00 0.00 0.00 39 1013.3
20260503224003 54 241 11.0 23.0 0.00 0.00 0.00 39 1013.3
20260503223503 54 262 16.0 23.0 0.00 0.00 0.00 38 1013.2
20260503223004 54 255 10.0 18.0 0.00 0.00 0.00 38 1013.0
20260503222503 54 278 10.0 19.0 0.00 0.00 0.00 39 1013.0
20260503222003 54 271 12.0 19.0 0.00 0.00 0.00 40 1013.0
20260503221502 54 274 6.0 17.0 0.00 0.00 0.00 40 1013.1
20260503221002 54 218 10.0 17.0 0.00 0.00 0.00 39 1013.1
20260503220504 54 262 4.0 16.0 0.00 0.00 0.00 41 1013.1
20260503220004 53 281 9.0 17.0 0.00 0.00 0.00 39 1013.2
20260503215504 53 270 7.0 19.0 0.00 0.00 0.00 40 1013.1
20260503215003 54 287 8.0 19.0 0.00 0.00 0.00 39 1013.0
20260503214513 53 272 11.0 21.0 0.00 0.00 0.00 39 1013.0
20260503214006 53 231 12.0 21.0 0.00 0.00 0.00 39 1013.0
20260503213503 53 256 5.0 19.0 0.00 0.00 0.00 41 1013.0
20260503213003 54 259 11.0 19.0 0.00 0.00 0.00 39 1013.0
20260503212503 54 277 7.0 18.0 0.00 0.00 0.00 40 1013.1
20260503212003 53 202 8.0 18.0 0.00 0.00 0.00 41 1013.2
20260503211504 53 291 6.0 17.0 0.00 0.00 0.00 42 1013.2
20260503211002 53 234 10.0 17.0 0.00 0.00 0.00 40 1013.2
20260503210502 53 266 7.0 19.0 0.00 0.00 0.00 40 1013.3
20260503210005 53 275 5.0 19.0 0.00 0.00 0.00 40 1013.2
20260503205504 53 272 12.0 19.0 0.00 0.00 0.00 39 1013.3
20260503205003 53 256 11.0 21.0 0.00 0.00 0.00 41 1013.2
20260503204505 53 281 12.0 21.0 0.00 0.00 0.00 40 1013.2
20260503204003 53 250 9.0 19.0 0.00 0.00 0.00 40 1013.2
20260503203503 53 253 6.0 16.0 0.00 0.00 0.00 41 1013.2
20260503203005 53 302 6.0 20.0 0.00 0.00 0.00 39 1013.3
20260503202503 53 300 9.0 20.0 0.00 0.00 0.00 39 1013.3
20260503202004 53 276 8.0 20.0 0.00 0.00 0.00 40 1013.4
20260503201503 53 242 5.0 20.0 0.00 0.00 0.00 39 1013.4
20260503201007 54 293 11.0 18.0 0.00 0.00 0.00 39 1013.3
20260503200503 53 257 7.0 16.0 0.00 0.00 0.00 41 1013.5
20260503200006 52 280 6.0 21.0 0.00 0.00 0.00 40 1013.6
20260503195502 52 266 11.0 21.0 0.00 0.00 0.00 40 1013.7
20260503195003 52 278 10.0 23.0 0.00 0.00 0.00 41 1013.8
20260503194505 52 256 12.0 21.0 0.00 0.00 0.00 41 1013.9
20260503194003 53 266 9.0 19.0 0.00 0.00 0.00 41 1014.0
20260503193504 53 284 6.0 21.0 0.00 0.00 0.00 43 1014.1
20260503193005 52 290 8.0 21.0 0.00 0.00 0.00 42 1014.2
20260503192504 52 248 10.0 19.0 0.00 0.00 0.00 43 1014.2
20260503192004 52 280 7.0 19.0 0.00 0.00 0.00 42 1014.2
20260503191515 52 257 9.0 17.0 0.00 0.00 0.00 41 1014.2
20260503191004 52 274 7.0 17.0 0.00 0.00 0.00 40 1014.3
20260503190502 52 231 6.0 20.0 0.00 0.00 0.00 43 1014.3
20260503190006 52 275 8.0 20.0 0.00 0.00 0.00 43 1014.5
20260503185502 52 281 12.0 20.0 0.00 0.00 0.00 41 1014.5
20260503185002 53 278 7.0 17.0 0.00 0.00 0.00 41 1014.6
20260503184507 53 280 5.0 17.0 0.00 0.00 0.00 42 1014.6
20260503184002 53 226 7.0 20.0 0.00 0.00 0.00 44 1014.7
20260503183503 51 276 9.0 22.0 0.00 0.00 0.00 43 1014.7
20260503183007 51 279 8.0 22.0 0.00 0.00 0.00 43 1014.9
20260503182503 51 288 6.0 15.0 0.00 0.00 0.00 43 1014.9
20260503182006 51 283 5.0 18.0 0.00 0.00 0.00 43 1015.0
20260503181506 51 266 11.0 18.0 0.00 0.00 0.00 43 1014.8
20260503181004 51 292 8.0 18.0 0.00 0.00 0.00 42 1014.8
20260503180504 51 274 10.0 18.0 0.00 0.00 0.00 42 1014.9
20260503180006 50 303 5.0 21.0 0.00 0.00 0.00 44 1014.9
20260503175503 50 255 9.0 21.0 0.00 0.00 0.00 42 1014.9
20260503175003 51 286 9.0 16.0 0.00 0.00 0.00 42 1014.9
20260503174515 50 287 7.0 15.0 0.00 0.00 0.00 43 1014.8
20260503174002 49 274 10.0 15.0 0.00 0.00 0.00 43 1015.0
20260503173502 49 226 8.0 18.0 0.00 0.00 0.00 42 1015.1
20260503173008 49 255 8.0 19.0 0.00 0.00 0.00 42 1015.1
20260503172504 49 241 11.0 19.0 0.00 0.00 0.00 44 1015.1
20260503172003 48 238 9.0 19.0 0.00 0.00 0.00 43 1015.3
20260503171505 49 257 11.0 19.0 0.00 0.00 0.00 42 1015.2
20260503171006 50 271 7.0 15.0 0.00 0.00 0.00 43 1015.4
20260503170506 50 278 5.0 15.0 0.00 0.00 0.00 44 1015.2